metlocid,date_time,avg_ppt,std_ppt,min_ppt,max_ppt,n_ppt,n_comments
EXEM,11/24/95,335.3846248,3.000517338,325.4,336.4,13,0
EXEM,11/25/95,336.1750069,0.142190253,335.9,336.4,24,0
EXEM,11/26/95,326.8875046,5.076572156,320.5,336.4,24,0
EXEM,11/27/95,325.0625051,0.124459067,324.7,325.2,24,0
EXEM,11/28/95,325.0041707,0.142887149,324.7,325.2,24,0
EXEM,11/29/95,325.1333389,0.127406633,325,325.4,24,0
EXEM,11/30/95,324.9750036,0.142186287,324.7,325.2,24,0
EXEM,12/1/95,325.0458387,0.141359428,324.7,325.2,24,0
EXEM,12/2/95,325.1916784,0.040827321,325,325.2,24,0
EXEM,12/3/95,325.1666743,0.112933351,325,325.4,24,0
EXEM,12/4/95,325.1666743,0.112933351,325,325.4,24,0
EXEM,12/5/95,325.1916758,0.092860839,325,325.4,24,0
EXEM,12/6/95,325.1416715,0.138051588,325,325.4,24,0
EXEM,12/7/95,325.0791715,0.097715234,325,325.2,24,0
EXEM,12/8/95,325.0416692,0.082975288,325,325.2,24,0
EXEM,12/9/95,325.1666768,0.076143346,325,325.2,24,0
EXEM,12/10/95,324.7666766,0.495777521,324.2,325.4,24,0
EXEM,12/11/95,324.3125102,0.247263921,324.2,325,24,0
EXEM,12/12/95,324.7333425,0.109010132,324.5,325,24,0
EXEM,12/13/95,324.6500066,0.144465412,324.5,325,24,0
EXEM,12/14/95,324.5875041,0.129593339,324.5,325,24,0
EXEM,12/15/95,324.6625061,0.16101053,324.5,325,24,0
EXEM,12/16/95,324.5958405,0.130151539,324.2,324.7,24,0
EXEM,12/17/95,324.5291684,0.069029518,324.5,324.7,24,0
EXEM,12/18/95,324.5708364,0.126766176,324.5,325,24,0
EXEM,12/19/95,324.6000061,0.102157018,324.5,324.7,24,0
EXEM,12/20/95,324.6750056,0.159483442,324.5,325,24,0
EXEM,12/21/95,324.8250058,0.172572887,324.5,325.2,24,0
EXEM,12/22/95,324.7750092,0.132692361,324.7,325,24,0
EXEM,12/23/95,324.8333397,0.149388639,324.7,325,24,0
EXEM,12/24/95,324.9875005,0.067965919,324.7,325.1,24,0
EXEM,12/25/95,324.7958399,0.170619449,324.5,325,24,0
EXEM,12/26/95,324.6416753,0.092866792,324.5,324.7,24,0
EXEM,12/27/95,324.6250076,0.098913108,324.5,324.7,24,0
EXEM,12/28/95,324.7333387,0.192616263,324.5,325,24,0
EXEM,12/29/95,324.8041725,0.170619287,324.5,325,24,0
EXEM,12/30/95,324.6416715,0.158573042,324.5,325,24,0
EXEM,12/31/95,324.8041738,0.160101562,324.5,325,24,0
EXEM,1/1/96,324.6333389,0.14939752,324.5,325,24,0
EXEM,1/2/96,324.5333354,0.076143346,324.5,324.7,24,0
EXEM,1/3/96,324.6375046,0.168917749,324.5,325,24,0
EXEM,1/4/96,324.7541733,0.176877032,324.5,325,24,0
EXEM,1/5/96,324.7041766,0.080643523,324.5,325,24,0
EXEM,1/6/96,324.6625036,0.197402305,324.5,325,24,0
EXEM,1/7/96,324.8125076,0.14835457,324.7,325,24,0
EXEM,1/8/96,324.8083394,0.174243907,324.5,325,24,0
EXEM,1/9/96,324.8625056,0.152687,324.7,325,24,0
EXEM,1/10/96,324.9208374,0.176876844,324.5,325.2,24,0
EXEM,1/11/96,325,0,325,325,24,0
EXEM,1/12/96,324.8041738,0.142881113,324.7,325,24,0
EXEM,1/13/96,324.7916743,0.13804494,324.7,325,24,0
EXEM,1/14/96,324.8583399,0.166589223,324.7,325.2,24,0
EXEM,1/15/96,324.8375041,0.176465381,324.5,325,24,0
EXEM,1/16/96,324.8625056,0.178911998,324.5,325.2,24,0
EXEM,1/17/96,324.8750051,0.177539889,324.5,325.2,24,0
EXEM,1/18/96,324.8625056,0.152687,324.7,325,24,0
EXEM,1/19/96,324.8125051,0.187224875,324.5,325,24,0
EXEM,1/20/96,324.8833377,0.146449702,324.7,325,24,0
EXEM,1/21/96,324.8500061,0.153219941,324.7,325,24,0
EXEM,1/22/96,324.7958361,0.238617527,324.5,325.2,24,0
EXEM,1/23/96,324.8875046,0.14835457,324.7,325,24,0
EXEM,1/24/96,324.7958387,0.203188554,324.5,325.2,24,0
EXEM,1/25/96,324.9750048,0.191671878,324.7,325.4,24,0
EXEM,1/26/96,325.0875041,0.154111039,324.7,325.4,24,0
EXEM,1/27/96,325.2125028,0.196294356,324.7,325.4,24,0
EXEM,1/28/96,325.7291667,1.052317326,324,328.3,24,0
EXEM,1/29/96,326.7750015,1.117546772,325,328.6,24,0
EXEM,1/30/96,327.2833341,0.556902877,325.7,327.9,24,0
EXEM,1/31/96,327.0166664,0.753923685,325.2,327.9,24,0
EXEM,2/1/96,327.6500015,0.193365019,327.1,327.9,24,0
EXEM,2/2/96,327.6500015,0.169396501,327.4,327.9,24,0
EXEM,2/3/96,327.5833359,0.127405592,327.4,327.9,24,0
EXEM,2/4/96,327.6958313,0.234942399,327.1,327.9,24,0
EXEM,2/5/96,327.6958351,0.133440403,327.6,327.9,24,0
EXEM,2/6/96,327.6416664,0.212470662,327.1,327.9,24,0
EXEM,2/7/96,327.7375005,0.282554742,327.1,328.1,24,0
EXEM,2/8/96,327.4625015,0.306182859,327.1,327.9,24,0
EXEM,2/9/96,327.0833359,0.127405592,326.9,327.4,24,0
EXEM,2/10/96,327.0875028,0.159651889,326.7,327.4,24,0
EXEM,2/11/96,327.0416692,0.088060035,326.9,327.1,24,0
EXEM,2/12/96,327.0083364,0.131602881,326.7,327.1,24,0
EXEM,2/13/96,326.8916651,0.110004055,326.7,327.1,24,0
EXEM,2/14/96,326.8458341,0.310647216,325.7,327.1,24,0
EXEM,2/15/96,326.4458351,0.754680308,324.6,327.9,24,0
EXEM,2/16/96,326.9791692,0.141358059,326.7,327.1,24,0
EXEM,2/17/96,326.9333369,0.163297908,326.7,327.1,24,0
EXEM,2/18/96,327.0000025,0.131878107,326.7,327.1,24,0
EXEM,2/19/96,326.8541641,0.166756493,326.4,327.1,24,0
EXEM,2/20/96,326.9083354,0.150118839,326.7,327.1,24,0
EXEM,2/21/96,326.8458316,0.102055627,326.6,327,24,0
EXEM,2/22/96,326.7499987,0.208514096,326.4,327.1,24,0
EXEM,2/23/96,326.8458354,0.333596335,326.4,327.6,24,0
EXEM,2/24/96,327.1208356,0.176876313,326.7,327.4,24,0
EXEM,2/25/96,327.037501,0.124459067,326.9,327.4,24,0
EXEM,2/26/96,245.3250046,163.5500031,0,327.1,4,1
EXEM,12/12/96,,,,,0,1
EXEM,11/21/97,,,,,0,51
EXEM,11/22/97,,,,,0,96
EXEM,11/23/97,,,,,0,96
EXEM,11/24/97,,,,,0,96
EXEM,11/25/97,,,,,0,96
EXEM,11/26/97,,,,,0,71
EXEM,11/27/97,,,,,0,96
EXEM,11/28/97,,,,,0,96
EXEM,11/29/97,,,,,0,96
EXEM,11/30/97,,,,,0,96
EXEM,12/1/97,,,,,0,96
EXEM,12/2/97,,,,,0,96
EXEM,12/3/97,,,,,0,96
EXEM,12/4/97,,,,,0,96
EXEM,12/5/97,,,,,0,96
EXEM,12/6/97,,,,,0,96
EXEM,12/7/97,,,,,0,96
EXEM,12/8/97,,,,,0,96
EXEM,12/9/97,,,,,0,96
EXEM,12/10/97,,,,,0,96
EXEM,12/11/97,,,,,0,96
EXEM,12/12/97,,,,,0,96
EXEM,12/13/97,,,,,0,96
EXEM,12/14/97,,,,,0,96
EXEM,12/15/97,,,,,0,96
EXEM,12/16/97,,,,,0,96
EXEM,12/17/97,,,,,0,96
EXEM,12/18/97,,,,,0,96
EXEM,12/19/97,,,,,0,96
EXEM,12/20/97,,,,,0,96
EXEM,12/21/97,,,,,0,96
EXEM,12/22/97,,,,,0,96
EXEM,12/23/97,,,,,0,96
EXEM,12/24/97,,,,,0,96
EXEM,12/25/97,,,,,0,96
EXEM,12/26/97,,,,,0,96
EXEM,12/27/97,,,,,0,96
EXEM,12/28/97,,,,,0,96
EXEM,12/29/97,,,,,0,96
EXEM,12/30/97,,,,,0,96
EXEM,12/31/97,,,,,0,96
EXEM,1/1/98,,,,,0,96
EXEM,1/2/98,,,,,0,96
EXEM,1/3/98,,,,,0,96
EXEM,1/4/98,,,,,0,96
EXEM,1/5/98,,,,,0,96
EXEM,1/6/98,,,,,0,96
EXEM,1/7/98,,,,,0,96
EXEM,1/8/98,,,,,0,96
EXEM,1/9/98,,,,,0,96
EXEM,1/10/98,,,,,0,96
EXEM,1/11/98,,,,,0,96
EXEM,1/12/98,,,,,0,96
EXEM,1/13/98,,,,,0,40
EXEM,12/12/98,,,,,0,1
EXEM,1/25/00,119.8000005,0.771844144,117.3,120.3,48,0
EXEM,1/26/00,119.933334,0.090223347,119.7,120.1,96,0
EXEM,1/27/00,119.7416668,0.185624281,119.4,120.2,96,0
EXEM,1/28/00,119.6624997,0.194259514,119.4,120,96,0
EXEM,1/29/00,119.5333341,0.218447178,119.2,120.2,96,0
EXEM,1/30/00,119.5541671,0.169156312,119.4,119.9,96,0
EXEM,1/31/00,119.5499996,0.108578426,119.4,119.8,96,0
EXEM,2/1/00,119.5375004,0.168740777,119.4,119.9,96,0
EXEM,2/2/00,119.4916668,0.104292191,119.4,119.7,96,0
EXEM,2/3/00,119.2958333,0.165381704,119.1,119.7,96,0
EXEM,2/4/00,119.2041667,0.12132486,119.1,119.4,96,0
EXEM,2/5/00,119.2875004,0.157113148,119.1,119.6,96,0
EXEM,2/6/00,119.3083337,0.144854487,119.1,119.5,96,0
EXEM,2/7/00,119.2708333,0.157559344,119.1,119.5,96,0
EXEM,2/8/00,119.1708326,0.117802632,119,119.5,96,0
EXEM,2/9/00,119.1166662,0.121972169,118.9,119.3,96,0
EXEM,2/10/00,119.1541656,0.086957529,119.1,119.4,96,0
EXEM,2/11/00,119.0541658,0.081970075,118.9,119.2,96,0
EXEM,2/12/00,119.0666669,0.160700036,118.8,119.5,96,0
EXEM,2/13/00,119.1249987,0.059825271,119.1,119.3,96,0
EXEM,2/14/00,119.0708326,0.124744299,118.8,119.4,96,0
EXEM,2/15/00,118.9750004,0.130585208,118.7,119.3,96,0
EXEM,2/16/00,119.0666656,0.069078102,118.9,119.1,96,0
EXEM,2/17/00,119.1624991,0.099737832,119.1,119.4,96,0
EXEM,2/18/00,119.1249997,0.151484281,118.9,119.4,96,0
EXEM,2/19/00,119.0875003,0.22722514,118.8,119.6,96,0
EXEM,2/20/00,119.1708333,0.182334246,118.9,119.5,96,0
EXEM,2/21/00,119.1041667,0.146479278,118.9,119.4,96,0
EXEM,2/22/00,119.7833331,0.663431813,119.1,120.8,96,0
EXEM,2/23/00,120.7541682,0.076664948,120.6,120.8,96,0
EXEM,2/24/00,120.5583324,0.086651848,120.4,120.7,96,0
EXEM,2/25/00,120.7249997,0.301924636,120.4,121.8,96,0
EXEM,2/26/00,120.8458335,0.270639319,120.4,121.4,96,0
EXEM,2/27/00,121.2416665,0.583938046,120.6,122.5,96,0
EXEM,2/28/00,120.6124999,0.137075041,120.4,120.9,96,0
EXEM,2/29/00,120.5833337,0.158058185,120.4,120.8,96,0
EXEM,3/1/00,120.5749995,0.101566549,120.4,120.8,96,0
EXEM,3/2/00,120.4833336,0.094774374,120.4,120.6,96,0
EXEM,3/3/00,120.4500008,0.082077016,120.4,120.6,96,0
EXEM,3/4/00,120.4958334,0.10653887,120.4,120.7,96,0
EXEM,3/5/00,120.4916668,0.100173756,120.4,120.6,96,0
EXEM,3/6/00,120.541666,0.104292191,120.4,120.7,96,0
EXEM,3/7/00,120.4833336,0.10327798,120.3,120.6,96,0
EXEM,3/8/00,120.5083332,0.100173756,120.4,120.6,96,0
EXEM,3/9/00,120.6625001,0.115395642,120.4,120.9,96,0
EXEM,3/10/00,120.6833337,0.099121194,120.6,120.8,96,0
EXEM,3/11/00,120.6708323,0.07936289,120.6,120.8,96,0
EXEM,3/12/00,120.7083333,0.202960639,120.4,121.1,96,0
EXEM,3/13/00,120.6416661,0.13891853,120.4,121.1,96,0
EXEM,3/14/00,120.4750004,0.097331367,120.4,120.6,96,0
EXEM,3/15/00,120.5124998,0.105878157,120.4,120.7,96,0
EXEM,3/16/00,120.5249996,0.097331367,120.4,120.6,96,0
EXEM,3/17/00,120.5999985,0,120.6,120.6,96,0
EXEM,3/18/00,120.5333328,0.094774374,120.4,120.6,96,0
EXEM,3/19/00,120.9999994,0.659186715,120.6,122.6,96,0
EXEM,3/20/00,122.9250011,0.092904874,122.8,123,96,0
EXEM,3/21/00,122.8000031,0,122.8,122.8,96,0
EXEM,3/22/00,122.8125029,0.044128324,122.8,123,96,0
EXEM,3/23/00,123.100002,0.390410698,122.8,124,96,0
EXEM,3/24/00,124.5375023,0.270380432,124,124.8,96,0
EXEM,3/25/00,124.7500025,0.112391441,124.5,124.8,96,0
EXEM,3/26/00,124.7625027,0.09973751,124.5,124.8,96,0
EXEM,3/27/00,124.8000031,0,124.8,124.8,96,0
EXEM,3/28/00,124.8000031,0,124.8,124.8,96,0
EXEM,3/29/00,126.7291673,1.096397821,124.8,128.2,96,0
EXEM,3/30/00,127.2166659,0.458527356,126.7,128.6,96,0
EXEM,3/31/00,126.8166653,0.138159731,126.7,127,96,0
EXEM,4/1/00,126.9749997,0.083351723,126.7,127,96,0
EXEM,4/2/00,127.0708326,0.208209306,126.7,127.4,96,0
EXEM,4/3/00,127.7416674,0.198768524,127.4,127.9,96,0
EXEM,4/4/00,127.7166643,0.04738956,127.7,127.9,96,0
EXEM,4/5/00,127.9999965,0.316558981,127.7,128.4,96,0
EXEM,4/6/00,128.4124947,0.044131691,128.4,128.6,96,0
EXEM,4/7/00,128.3999939,0,128.4,128.4,96,0
EXEM,4/8/00,128.3916607,0.040174443,128.2,128.4,96,0
EXEM,4/9/00,128.2708295,0.093937803,128.2,128.4,96,0
EXEM,4/10/00,128.3916607,0.040174443,128.2,128.4,96,0
EXEM,4/11/00,128.3999939,0,128.4,128.4,96,0
EXEM,4/12/00,128.3999939,0,128.4,128.4,96,0
EXEM,4/13/00,128.2249966,0.066489982,128.2,128.4,96,0
EXEM,4/14/00,128.283329,0.099117413,128.2,128.4,96,0
EXEM,4/15/00,128.3624948,0.075740523,128.2,128.4,96,0
EXEM,4/16/00,128.1999969,0,128.2,128.2,96,0
EXEM,4/17/00,128.283329,0.099117413,128.2,128.4,96,0
EXEM,4/18/00,128.3916607,0.040174443,128.2,128.4,96,0
EXEM,4/19/00,128.3999939,0,128.4,128.4,96,0
EXEM,4/20/00,128.6041629,0.175269895,128.4,128.9,96,0
EXEM,4/21/00,128.7041645,0.035293516,128.6,128.8,96,0
EXEM,4/22/00,128.7041639,0.020088754,128.7,128.8,96,0
EXEM,4/23/00,128.7749977,0.213740724,128.7,129.6,96,0
EXEM,4/24/00,128.8374964,0.171218581,128.7,129.5,96,0
EXEM,4/25/00,128.7291635,0.10654029,128.7,129.2,96,0
EXEM,4/26/00,129.2208335,0.239262372,128.9,129.8,96,0
EXEM,4/27/00,128.6916625,0.209091741,128.4,129.2,96,0
EXEM,4/28/00,128.3999939,0,128.4,128.4,96,0
EXEM,4/29/00,128.3999939,0,128.4,128.4,96,0
EXEM,4/30/00,128.3999939,0,128.4,128.4,96,0
EXEM,5/1/00,128.4249942,0.083351723,128.4,128.7,96,0
EXEM,5/2/00,128.6041629,0.146480923,128.4,128.8,96,0
EXEM,5/3/00,128.6999969,0,128.7,128.7,96,0
EXEM,5/4/00,128.6999969,0,128.7,128.7,96,0
EXEM,5/5/00,128.8124968,0.203780012,128.7,129.2,96,0
EXEM,5/6/00,129.4750023,0.172295426,129.2,129.6,96,0
EXEM,5/7/00,129.5583369,0.081654642,129.4,129.6,96,0
EXEM,5/8/00,129.3999939,0,129.4,129.4,96,0
EXEM,5/9/00,129.2749958,0.097331367,129.2,129.4,96,0
EXEM,5/10/00,129.5499992,0.291638901,129.2,130,96,0
EXEM,5/11/00,129.8166701,0.257381509,129.5,130.3,96,0
EXEM,5/12/00,129.7000039,0.192489667,129.5,130.1,96,0
EXEM,5/13/00,129.6125031,0.113555561,129.4,129.9,96,0
EXEM,5/14/00,129.4333299,0.114863618,129.2,129.8,96,0
EXEM,5/15/00,129.0999959,0.142165177,128.9,129.2,96,0
EXEM,5/16/00,129.1541634,0.104546549,128.9,129.2,96,0
EXEM,5/17/00,129.1249962,0.130587053,128.9,129.2,96,0
EXEM,5/18/00,129.0374953,0.150264456,128.9,129.2,96,0
EXEM,5/19/00,129.1999969,0,129.2,129.2,96,0
EXEM,5/20/00,129.4916662,0.285682722,129.2,130.1,96,0
EXEM,5/21/00,130.6250006,0.255050534,130.1,130.9,96,0
EXEM,5/22/00,130.7666664,0.144118937,130.6,130.9,96,0
EXEM,5/23/00,130.6500041,0.112385724,130.6,130.9,96,0
EXEM,5/24/00,130.8999939,0,130.9,130.9,96,0
EXEM,5/25/00,130.7375005,0.150256813,130.6,130.9,96,0
EXEM,5/26/00,130.7624995,0.144544385,130.6,130.9,96,0
EXEM,5/27/00,130.8999939,0,130.9,130.9,96,0
EXEM,5/28/00,130.8999939,0,130.9,130.9,96,0
EXEM,5/29/00,130.8624954,0.099732437,130.6,130.9,96,0
EXEM,5/30/00,130.8999939,0,130.9,130.9,96,0
EXEM,5/31/00,130.8999939,0,130.9,130.9,96,0
EXEM,6/1/00,131.5666676,0.528486467,130.9,132.9,96,0
EXEM,6/2/00,132.9124997,0.385323506,132.4,133.7,96,0
EXEM,6/3/00,132.8375022,0.081110018,132.8,133.1,96,0
EXEM,6/4/00,133.5083357,0.30285128,133.1,134.1,96,0
EXEM,6/5/00,133.5791677,0.211219475,133.3,134,96,0
EXEM,6/6/00,133.3458347,0.244481406,132.8,133.9,96,0
EXEM,6/7/00,132.8000031,0.058037214,132.6,133,96,0
EXEM,6/8/00,132.6000061,0,132.6,132.6,96,0
EXEM,6/9/00,132.6000061,0,132.6,132.6,96,0
EXEM,6/10/00,132.6000061,0,132.6,132.6,96,0
EXEM,6/11/00,132.6000061,0,132.6,132.6,96,0
EXEM,6/12/00,132.6000061,0,132.6,132.6,96,0
EXEM,6/13/00,132.6000061,0,132.6,132.6,96,0
EXEM,6/14/00,132.5750058,0.083351723,132.3,132.6,96,0
EXEM,6/15/00,132.3291696,0.084501097,132.3,132.6,96,0
EXEM,6/16/00,132.3000031,0,132.3,132.3,96,0
EXEM,6/17/00,132.3000031,0,132.3,132.3,96,0
EXEM,6/18/00,132.3000031,0,132.3,132.3,96,0
EXEM,6/19/00,132.3000031,0,132.3,132.3,96,0
EXEM,6/20/00,132.3125032,0.060263196,132.3,132.6,96,0
EXEM,6/21/00,132.3000031,0,132.3,132.3,96,0
EXEM,6/22/00,132.3000031,0,132.3,132.3,96,0
EXEM,6/23/00,132.3000031,0,132.3,132.3,96,0
EXEM,6/24/00,132.8916677,0.262644511,132.3,133.3,96,0
EXEM,6/25/00,133.1333389,0.074925722,133.1,133.3,96,0
EXEM,6/26/00,132.9541709,0.14791107,132.8,133.1,96,0
EXEM,6/27/00,132.8000031,0,132.8,132.8,96,0
EXEM,6/28/00,132.8000031,0,132.8,132.8,96,0
EXEM,6/29/00,132.9041704,0.140614137,132.8,133.1,96,0
EXEM,6/30/00,132.8000031,0,132.8,132.8,96,0
EXEM,7/1/00,132.9833368,0.178099233,132.8,133.4,96,0
EXEM,7/2/00,133.5041669,0.328925412,132.9,134.4,96,0
EXEM,7/3/00,133.1666686,0.365532114,132.8,134.1,96,0
EXEM,7/4/00,133.2750028,0.177109256,133.1,133.7,96,0
EXEM,7/5/00,133.1958377,0.182331009,133.1,133.7,96,0
EXEM,7/6/00,133.1083374,0.138917509,132.8,133.5,96,0
EXEM,7/7/00,132.9166673,0.182766702,132.7,133.5,96,0
EXEM,7/8/00,132.9291674,0.343945316,132.4,134,96,0
EXEM,7/9/00,132.758337,0.081648412,132.6,132.8,96,0
EXEM,7/10/00,132.7875029,0.044128961,132.6,132.8,96,0
EXEM,7/11/00,132.6875045,0.124180639,132.6,133.1,96,0
EXEM,7/12/00,133.375,0.661893769,132.6,134.4,96,0
EXEM,7/13/00,133.6791674,0.281318001,133.3,134.3,96,0
EXEM,7/14/00,133.4125017,0.190978585,133.3,133.9,96,0
EXEM,7/15/00,133.5375017,0.34800097,133.1,134.5,96,0
EXEM,7/16/00,134.7416674,0.354123996,134.2,135.7,96,0
EXEM,7/17/00,134.454167,0.377224307,133.8,135.2,96,0
EXEM,7/18/00,133.5916678,0.135854773,133.5,133.8,96,0
EXEM,7/19/00,134.3541673,0.288707313,133.9,134.9,96,0
EXEM,7/20/00,133.7750003,0.308817592,133.5,134.5,96,0
EXEM,7/21/00,133.9166679,0.135076168,133.7,134.3,96,0
EXEM,7/22/00,133.5,0,133.5,133.5,96,0
EXEM,7/23/00,133.4833336,0.055566402,133.3,133.5,96,0
EXEM,7/24/00,133.5875009,0.137076096,133.5,133.8,96,0
EXEM,7/25/00,133.6375014,0.150264456,133.5,133.8,96,0
EXEM,7/26/00,133.6750018,0.148679901,133.5,133.8,96,0
EXEM,7/27/00,133.7458356,0.112313451,133.5,133.8,96,0
EXEM,7/28/00,133.5,0,133.5,133.5,96,0
EXEM,7/29/00,133.5041669,0.020088754,133.5,133.6,96,0
EXEM,7/30/00,133.5,0,133.5,133.5,96,0
EXEM,7/31/00,133.5,0,133.5,133.5,96,0
EXEM,8/1/00,134.2541676,0.546744687,133.5,135.2,96,0
EXEM,8/2/00,135.0833346,0.254089698,134.7,135.6,96,0
EXEM,8/3/00,135.4416669,0.389241349,135,136.1,96,0
EXEM,8/4/00,134.870835,0.093937604,134.8,135,96,0
EXEM,8/5/00,134.9833349,0.270151702,134.5,135.7,96,0
EXEM,8/6/00,134.3375015,0.111685131,134.2,134.7,96,0
EXEM,8/7/00,134.475001,0.130585331,134.3,134.8,96,0
EXEM,8/8/00,134.5500005,0.112391441,134.5,134.8,96,0
EXEM,8/9/00,135.0583324,0.43423572,134.5,135.5,96,0
EXEM,8/10/00,135.2250017,0.156945389,135,135.5,96,0
EXEM,8/11/00,135.3583349,0.086651539,135.3,135.5,96,0
EXEM,8/12/00,135.3000031,0,135.3,135.3,96,0
EXEM,8/13/00,135.0500005,0.112391441,135,135.3,96,0
EXEM,8/14/00,135.1458346,0.147910834,135,135.3,96,0
EXEM,8/15/00,135,0,135,135,96,0
EXEM,8/16/00,135.0875009,0.137076096,135,135.3,96,0
EXEM,8/17/00,135.0750008,0.130587053,135,135.3,96,0
EXEM,8/18/00,135,0,135,135,96,0
EXEM,8/19/00,135.662501,0.57660638,135,137,96,0
EXEM,8/20/00,135.1791674,0.161517509,135,135.5,96,0
EXEM,8/21/00,135,0,135,135,96,0
EXEM,8/22/00,135.2583326,0.427394114,135,136.2,96,0
EXEM,8/23/00,135.2666664,0.270152098,135,135.7,96,0
EXEM,8/24/00,135.0291672,0.079362755,134.9,135.3,96,0
EXEM,8/25/00,135.5416654,0.329485529,135,136.2,96,0
EXEM,8/26/00,135.8083312,0.161355308,135.7,136.2,96,0
EXEM,8/27/00,136.4249999,0.972570594,134.6,139.2,96,0
EXEM,8/28/00,135.579167,0.64561947,134.5,138.5,96,0
EXEM,8/29/00,135.5,0.573078638,133.5,136.2,96,0
EXEM,8/30/00,135.1333345,0.163300496,135,135.5,96,0
EXEM,8/31/00,135,0,135,135,96,0
EXEM,9/1/00,135,0,135,135,96,0
EXEM,9/2/00,135,0,135,135,96,0
EXEM,9/3/00,135.1041679,0.140614118,135,135.3,96,0
EXEM,9/4/00,135.3166695,0.224155927,135,136.1,96,0
EXEM,9/5/00,135.0374997,0.086145196,135,135.3,96,0
EXEM,9/6/00,134.9750004,0.066489982,134.8,135,96,0
EXEM,9/7/00,135.058335,0.316448158,134.8,135.9,96,0
EXEM,9/8/00,135.4333331,0.417174718,135,136,96,0
EXEM,9/9/00,136,0,136,136,96,0
EXEM,9/10/00,136,0,136,136,96,0
EXEM,9/11/00,135.8749987,0.148679901,135.7,136,96,0
EXEM,9/12/00,135.7749977,0.130587053,135.7,136,96,0
EXEM,9/13/00,136.1124986,0.215821824,135.7,136.4,96,0
EXEM,9/14/00,136.6208318,0.446723608,136.2,137.7,96,0
EXEM,9/15/00,136.037501,0.575142444,135.5,137.9,96,0
EXEM,9/16/00,135.8291651,0.182333622,135.6,136.4,96,0
EXEM,9/17/00,135.6999969,0,135.7,135.7,96,0
EXEM,9/18/00,135.6999969,0,135.7,135.7,96,0
EXEM,9/19/00,135.7499975,0.112391441,135.7,136,96,0
EXEM,9/20/00,135.7291641,0.110422517,135.5,136,96,0
EXEM,9/21/00,135.6583309,0.081648412,135.5,135.7,96,0
EXEM,9/22/00,135.6166649,0.099117413,135.5,135.7,96,0
EXEM,9/23/00,135.6249981,0.097331367,135.5,135.7,96,0
EXEM,9/24/00,137.2583313,1.652792433,135.7,140.1,96,0
EXEM,9/25/00,144.1999995,3.007778178,138.5,150.9,96,0
EXEM,9/26/00,143.0083351,1.541815508,141.6,148.6,96,0
EXEM,9/27/00,141.8791688,0.226606443,141.6,142.5,96,0
EXEM,9/28/00,145.1749986,2.549756146,138.8,149.9,96,0
EXEM,9/29/00,145.1083342,0.695195987,144.2,146.2,96,0
EXEM,9/30/00,144.7541688,0.953211913,144,147.8,96,0
EXEM,10/1/00,148.4416644,2.345866122,144,153.6,96,0
EXEM,10/2/00,146.8833313,2.183122604,144.5,149.2,96,0
EXEM,10/3/00,144.4458345,0.15072725,144.3,144.9,96,0
EXEM,10/4/00,144.2166678,0.144125104,144,144.4,96,0
EXEM,10/5/00,144.0958347,0.128077333,144,144.3,96,0
EXEM,10/6/00,144.4416669,0.230177461,144,145,96,0
EXEM,10/7/00,144.6541684,0.147910834,144.5,144.8,96,0
EXEM,10/8/00,144.7541695,0.104546549,144.5,144.8,96,0
EXEM,10/9/00,144.8000031,0,144.8,144.8,96,0
EXEM,10/10/00,144.6625017,0.150264456,144.5,144.8,96,0
EXEM,10/11/00,144.6166674,0.141174214,144.5,144.8,96,0
EXEM,10/12/00,144.6333345,0.147018524,144.5,144.8,96,0
EXEM,10/13/00,144.6125011,0.146000764,144.5,144.8,96,0
EXEM,10/14/00,144.6791681,0.142103397,144.5,144.8,96,0
EXEM,10/15/00,144.5666676,0.099119358,144.5,144.8,96,0
EXEM,10/16/00,144.5666669,0.111134924,144.5,144.8,96,0
EXEM,10/17/00,144.5708338,0.11780228,144.5,144.8,96,0
EXEM,10/18/00,144.6333345,0.147018524,144.5,144.8,96,0
EXEM,10/19/00,144.5,0,144.5,144.5,96,0
EXEM,10/20/00,144.4625015,0.135529532,144.3,144.8,96,0
EXEM,10/21/00,144.4625015,0.099736302,144.3,144.6,96,0
EXEM,10/22/00,144.5416686,0.122831947,144.3,144.8,96,0
EXEM,10/23/00,144.4875011,0.078472439,144.3,144.6,96,0
EXEM,10/24/00,144.5541681,0.081972116,144.5,144.8,96,0
EXEM,10/25/00,144.637502,0.173661173,144.3,144.8,96,0
EXEM,10/26/00,145.0458349,0.233920713,144.8,145.5,96,0
EXEM,10/27/00,145.2250023,0.130587053,145,145.3,96,0
EXEM,10/28/00,145.0416679,0.091385079,144.9,145.3,96,0
EXEM,10/29/00,144.9083354,0.122832252,144.7,145.1,96,0
EXEM,10/30/00,144.7916692,0.027785321,144.7,144.8,96,0
EXEM,10/31/00,144.708334,0.15332567,144.5,145,96,0
EXEM,11/1/00,144.7083352,0.15332602,144.5,145,96,0
EXEM,11/2/00,144.7208354,0.129710881,144.5,144.8,96,0
EXEM,11/3/00,144.8458341,0.178836413,144.5,145.1,96,0
EXEM,11/4/00,145.7291686,1.187116855,142.9,148.8,96,0
EXEM,11/5/00,145.8208332,0.797352468,144.6,147.5,96,0
EXEM,11/6/00,146.0125014,1.78562941,145,153.3,96,0
EXEM,11/7/00,144.5125008,0.436553789,143.5,145.3,96,0
EXEM,11/8/00,145.3750013,0.1015656,145.2,145.5,96,0
EXEM,11/9/00,145.3708344,0.089342914,145.3,145.5,96,0
EXEM,11/10/00,145.4583352,0.153324972,145.3,145.8,96,0
EXEM,11/11/00,145.5291665,0.079362182,145.4,145.7,96,0
EXEM,11/12/00,146.6500003,1.530049627,145.5,151.2,96,0
EXEM,11/13/00,146.0624994,0.15026328,145.8,146.5,96,0
EXEM,11/14/00,146.0583324,0.132719725,145.9,146.3,96,0
EXEM,11/15/00,145.8541686,0.265931238,145.5,146.8,96,0
EXEM,11/16/00,145.8500004,0.082076624,145.7,146,96,0
EXEM,11/17/00,145.8416659,0.076316878,145.7,146,96,0
EXEM,11/18/00,145.9125017,0.105878726,145.8,146.1,96,0
EXEM,11/19/00,146.020834,0.064755417,145.9,146.2,96,0
EXEM,11/20/00,145.9874999,0.088556079,145.8,146.3,96,0
EXEM,11/21/00,145.9249999,0.088257012,145.8,146,96,0
EXEM,11/22/00,146.2583326,0.946090383,145.8,150.7,96,0
EXEM,11/23/00,147.6791643,1.011502074,146.6,150.9,96,0
EXEM,11/24/00,146.5666656,0.114859516,146.4,146.9,96,0
EXEM,11/25/00,146.5833327,0.141171407,146.4,146.9,96,0
EXEM,11/26/00,146.8249995,0.311533373,146.4,147.3,96,0
EXEM,11/27/00,147.204167,0.229376031,147,147.9,96,0
EXEM,11/28/00,147.4695654,0.208470339,147.2,148.1,92,4
EXEM,11/29/00,147.3208319,0.166649222,147.1,147.7,96,0
EXEM,11/30/00,147.2374986,0.115393519,147,147.5,96,0
EXEM,12/1/00,147.1249994,0.120524127,147,147.4,96,0
EXEM,12/2/00,147.1749986,0.184105041,146.9,147.5,96,0
EXEM,12/3/00,147.1916656,0.064344826,147,147.3,96,0
EXEM,12/4/00,147.0958341,0.102512082,147,147.3,96,0
EXEM,12/5/00,147.1833324,0.138157367,147,147.5,96,0
EXEM,12/6/00,147.2624976,0.090901896,147.2,147.5,96,0
EXEM,12/7/00,147.3666649,0.144126069,147.2,147.5,96,0
EXEM,12/8/00,147.4333324,0.090223941,147.2,147.5,96,0
EXEM,12/9/00,147.3874989,0.140114468,147.2,147.6,96,0
EXEM,12/10/00,147.2791665,0.076663656,147.2,147.5,96,0
EXEM,12/11/00,147.2708314,0.114170141,147.1,147.5,96,0
EXEM,12/12/00,147.3708331,0.162816995,147.2,147.7,96,0
EXEM,12/13/00,147.3624986,0.178443338,147.2,147.9,96,0
EXEM,12/14/00,147.3583323,0.161354213,147,147.7,96,0
EXEM,12/15/00,147.3666649,0.121972872,147.2,147.6,96,0
EXEM,12/16/00,147.2874978,0.093188681,147.2,147.5,96,0
EXEM,12/17/00,147.3374983,0.144551886,147.2,147.6,96,0
EXEM,12/18/00,147.3874995,0.146000819,147.2,147.6,96,0
EXEM,12/19/00,147.3958314,0.12132432,147.2,147.6,96,0
EXEM,12/20/00,147.3583323,0.156048143,147.1,147.6,96,0
EXEM,12/21/00,147.1666654,0.229718938,146.8,147.9,96,0
EXEM,12/22/00,147.3166663,0.163298726,147,147.6,96,0